Location: Poughquag
(41.6090°N, 73.6820°W)
Time: 02:47:30
(UTC-04:00)

Transit 4A - Pass Details

Date: 01 June 2020
Orbit: 866 x 978 km, 66.8° (Epoch: 06 July)

Event Time Altitude Azimuth Distance (km) Brightness Sun altitude
Rises 03:26:13 0° 245° (WSW) 3,443 - -17.0°
Reaches altitude 10° 03:29:05 10° 258° (WSW) 2,515 - -16.7°
Exits shadow 03:29:58 14° 264° (W) 2,259 9.5 -16.6°
Maximum altitude 03:33:54 26° 314° (NW) 1,651 9.3 -16.1°
Drops below altitude 10° 03:38:49 10° 11° (N) 2,568 11.2 -15.6°
Sets 03:41:47 0° 24° (NNE) 3,530 12.4 -15.2°
